When you browse on this site, cookies collect data to enhance your experience and personalize the content and advertising you see.
Visit our Privacy Policy to learn more. By continuing to use the site, you agree to this use of cookies and data.
  • In Deutschland
  • Länderverzeichnis
  • Für 7 Tage
  • Wassertemperatur
  • Satellitenkarten
  • Wetterkarte
  • Widgets
  • user-avatar
    Anmelden

    Stündliche Wetter Orvieto

    Heute, 21 Februar, Donnerstag

    Zeit Temperatur Niederschläge Wind Luftdruck Luftfeuchtigkeit
    00:00 +6°C° 0 mm 1 m/S 749 mmHg 86%
    01:00 +6°C° 0 mm 1 m/S 749 mmHg 85%
    02:00 +5°C° 0 mm 1 m/S 749 mmHg 86%
    03:00 +5°C° 0 mm 1 m/S 749 mmHg 87%
    04:00 +5°C° 0 mm 1 m/S 749 mmHg 88%
    05:00 +5°C° 0 mm 1 m/S 749 mmHg 88%
    06:00 +5°C° 0 mm 1 m/S 749 mmHg 89%
    07:00 +4°C° 0 mm 1 m/S 750 mmHg 89%
    08:00 +7°C° 0 mm 1 m/S 750 mmHg 81%
    09:00 +9°C° 0 mm 1 m/S 750 mmHg 74%
    10:00 +11°C° 0 mm 1 m/S 751 mmHg 66%
    11:00 +12°C° 0 mm 1 m/S 751 mmHg 60%
    12:00 +14°C° 0 mm 1 m/S 751 mmHg 54%
    13:00 +15°C° 0 mm 1 m/S 751 mmHg 49%
    14:00 +15°C° 0 mm 1 m/S 750 mmHg 49%
    15:00 +15°C° 0 mm 1 m/S 750 mmHg 49%
    16:00 +15°C° 0 mm 1 m/S 750 mmHg 49%
    17:00 +13°C° 0 mm 1 m/S 750 mmHg 56%
    18:00 +11°C° 0 mm 1 m/S 750 mmHg 63%
    19:00 +8°C° 0 mm 0 m/S 750 mmHg 70%
    20:00 +8°C° 0 mm 0 m/S 750 mmHg 73%
    21:00 +7°C° 0 mm 0 m/S 750 mmHg 76%
    22:00 +7°C° 0 mm 0 m/S 750 mmHg 78%
    23:00 +6°C° 0 mm 0 m/S 750 mmHg 80%

    Morgen, 22 Februar, Freitag

    Zeit Temperatur Niederschläge Wind Luftdruck Luftfeuchtigkeit
    00:00 +6°C° 0 mm 0 m/S 750 mmHg 82%
    01:00 +6°C° 0 mm 0 m/S 750 mmHg 83%
    02:00 +6°C° 0 mm 1 m/S 750 mmHg 85%
    03:00 +6°C° 0 mm 1 m/S 749 mmHg 86%
    04:00 +6°C° 0 mm 1 m/S 749 mmHg 87%
    05:00 +6°C° 0 mm 1 m/S 749 mmHg 88%
    06:00 +6°C° 0 mm 1 m/S 749 mmHg 90%
    07:00 +5°C° 0 mm 1 m/S 749 mmHg 91%
    08:00 +6°C° 0 mm 2 m/S 749 mmHg 86%
    09:00 +8°C° 0 mm 2 m/S 749 mmHg 82%
    10:00 +10°C° 0 mm 2 m/S 749 mmHg 77%
    11:00 +13°C° 0 mm 2 m/S 749 mmHg 70%
    12:00 +13°C° 0 mm 3 m/S 749 mmHg 63%
    13:00 +16°C° 0 mm 3 m/S 749 mmHg 56%
    14:00 +16°C° 0 mm 3 m/S 748 mmHg 56%
    15:00 +15°C° 0 mm 4 m/S 748 mmHg 56%
    16:00 +15°C° 0 mm 4 m/S 748 mmHg 55%
    17:00 +13°C° 0 mm 4 m/S 748 mmHg 61%
    18:00 +11°C° 0 mm 3 m/S 748 mmHg 67%
    19:00 +9°C° 0 mm 3 m/S 749 mmHg 73%
    20:00 +9°C° 0 mm 3 m/S 749 mmHg 74%
    21:00 +9°C° 0 mm 3 m/S 749 mmHg 75%
    22:00 +8°C° 0 mm 3 m/S 750 mmHg 76%
    23:00 +7°C° 0 mm 4 m/S 750 mmHg 75%

    übermorgen, 23 Februar, Samstag

    Zeit Temperatur Niederschläge Wind Luftdruck Luftfeuchtigkeit
    00:00 +7°C° 0 mm 5 m/S 750 mmHg 75%
    01:00 +7°C° 0 mm 6 m/S 751 mmHg 75%
    02:00 +5°C° 0 mm 6 m/S 751 mmHg 67%
    03:00 +5°C° 0 mm 5 m/S 751 mmHg 59%
    04:00 +3°C° 0 mm 5 m/S 751 mmHg 51%
    05:00 +3°C° 0 mm 6 m/S 751 mmHg 51%
    06:00 +3°C° 0 mm 6 m/S 751 mmHg 51%
    07:00 +2°C° 0 mm 6 m/S 751 mmHg 51%
    08:00 +3°C° 0 mm 7 m/S 751 mmHg 48%
    09:00 +5°C° 0 mm 8 m/S 752 mmHg 44%
    10:00 +6°C° 0 mm 8 m/S 752 mmHg 41%
    11:00 +6°C° 0 mm 9 m/S 752 mmHg 38%
    12:00 +7°C° 0 mm 10 m/S 752 mmHg 36%
    13:00 +7°C° 0 mm 10 m/S 752 mmHg 33%
    14:00 +6°C° 0 mm 10 m/S 752 mmHg 33%
    15:00 +6°C° 0 mm 10 m/S 752 mmHg 33%
    16:00 +5°C° 0 mm 10 m/S 752 mmHg 33%
    17:00 +3°C° 0 mm 9 m/S 752 mmHg 35%
    18:00 +1°C° 0 mm 8 m/S 752 mmHg 38%
    19:00 0°C° 0 mm 8 m/S 752 mmHg 40%
    20:00 -1°C° 0 mm 7 m/S 752 mmHg 41%
    21:00 -1°C° 0 mm 7 m/S 753 mmHg 42%
    22:00 -1°C° 0 mm 7 m/S 753 mmHg 44%
    23:00 -1°C° 0 mm 7 m/S 753 mmHg 45%

    24 Februar, Sonntag

    Zeit Temperatur Niederschläge Wind Luftdruck Luftfeuchtigkeit
    00:00 -1°C° 0 mm 7 m/S 753 mmHg 46%
    01:00 -2°C° 0 mm 6 m/S 753 mmHg 47%
    02:00 -2°C° 0 mm 6 m/S 753 mmHg 47%
    03:00 -2°C° 0 mm 6 m/S 753 mmHg 47%
    04:00 -2°C° 0 mm 6 m/S 753 mmHg 48%
    05:00 -2°C° 0 mm 6 m/S 753 mmHg 48%
    06:00 -2°C° 0 mm 6 m/S 753 mmHg 48%
    07:00 -2°C° 0 mm 6 m/S 753 mmHg 48%
    08:00 -1°C° 0 mm 7 m/S 753 mmHg 44%
    09:00 +2°C° 0 mm 7 m/S 753 mmHg 40%
    10:00 +4°C° 0 mm 8 m/S 753 mmHg 36%
    11:00 +5°C° 0 mm 8 m/S 753 mmHg 35%
    12:00 +6°C° 0 mm 8 m/S 753 mmHg 33%
    13:00 +7°C° 0 mm 8 m/S 753 mmHg 32%
    14:00 +7°C° 0 mm 8 m/S 753 mmHg 34%
    15:00 +7°C° 0 mm 8 m/S 753 mmHg 35%
    16:00 +6°C° 0 mm 7 m/S 752 mmHg 37%
    17:00 +5°C° 0 mm 7 m/S 752 mmHg 40%
    18:00 +3°C° 0 mm 6 m/S 752 mmHg 43%
    19:00 +2°C° 0 mm 5 m/S 752 mmHg 47%
    20:00 +1°C° 0 mm 5 m/S 753 mmHg 47%
    21:00 +1°C° 0 mm 5 m/S 753 mmHg 48%
    22:00 0°C° 0 mm 5 m/S 753 mmHg 48%
    23:00 0°C° 0 mm 5 m/S 753 mmHg 50%

    25 Februar, Montag

    Zeit Temperatur Niederschläge Wind Luftdruck Luftfeuchtigkeit
    00:00 0°C° 0 mm 4 m/S 753 mmHg 52%
    01:00 0°C° 0 mm 4 m/S 753 mmHg 54%
    02:00 0°C° 0 mm 4 m/S 752 mmHg 58%
    03:00 0°C° 0 mm 4 m/S 752 mmHg 61%
    04:00 0°C° 0 mm 4 m/S 751 mmHg 65%
    05:00 0°C° 0 mm 4 m/S 751 mmHg 66%
    06:00 0°C° 0 mm 4 m/S 751 mmHg 67%
    07:00 0°C° 0 mm 4 m/S 751 mmHg 68%
    08:00 +3°C° 0 mm 4 m/S 751 mmHg 63%
    09:00 +5°C° 0 mm 5 m/S 751 mmHg 58%
    10:00 +8°C° 0 mm 5 m/S 751 mmHg 52%
    11:00 +8°C° 0 mm 6 m/S 750 mmHg 51%
    12:00 +9°C° 0 mm 7 m/S 749 mmHg 51%
    13:00 +10°C° 0 mm 8 m/S 749 mmHg 50%
    14:00 +8°C° 0 mm 9 m/S 748 mmHg 53%
    15:00 +6°C° 0 mm 10 m/S 748 mmHg 56%
    16:00 +4°C° 0 mm 11 m/S 747 mmHg 59%
    17:00 +2°C° 0 mm 10 m/S 748 mmHg 57%
    18:00 +1°C° 0 mm 9 m/S 748 mmHg 54%
    19:00 -1°C° 0 mm 8 m/S 749 mmHg 51%
    20:00 -1°C° 0 mm 8 m/S 749 mmHg 53%
    21:00 -1°C° 0 mm 8 m/S 749 mmHg 56%
    22:00 0°C° 0 mm 8 m/S 750 mmHg 58%
    23:00 0°C° 0 mm 7 m/S 749 mmHg 60%

    26 Februar, Dienstag

    Zeit Temperatur Niederschläge Wind Luftdruck Luftfeuchtigkeit
    00:00 0°C° 0 mm 5 m/S 749 mmHg 62%
    01:00 0°C° 0 mm 4 m/S 749 mmHg 64%
    02:00 0°C° 0 mm 4 m/S 749 mmHg 67%
    03:00 0°C° 0 mm 4 m/S 749 mmHg 70%
    04:00 0°C° 0 mm 4 m/S 749 mmHg 73%
    05:00 0°C° 0 mm 4 m/S 750 mmHg 74%
    06:00 0°C° 0 mm 4 m/S 750 mmHg 75%
    07:00 0°C° 0 mm 4 m/S 750 mmHg 76%
    08:00 +3°C° 0 mm 4 m/S 750 mmHg 70%
    09:00 +5°C° 0 mm 4 m/S 751 mmHg 63%
    10:00 +7°C° 0 mm 5 m/S 751 mmHg 57%
    11:00 +8°C° 0 mm 5 m/S 751 mmHg 53%
    12:00 +10°C° 0 mm 5 m/S 751 mmHg 49%
    13:00 +11°C° 0 mm 6 m/S 751 mmHg 45%
    14:00 +12°C° 0 mm 5 m/S 750 mmHg 46%
    15:00 +12°C° 0 mm 5 m/S 750 mmHg 46%
    16:00 +12°C° 0 mm 5 m/S 750 mmHg 47%
    17:00 +10°C° 0 mm 4 m/S 750 mmHg 53%
    18:00 +8°C° 0 mm 3 m/S 750 mmHg 59%
    19:00 +5°C° 0 mm 3 m/S 750 mmHg 65%
    20:00 +5°C° 0 mm 3 m/S 750 mmHg 67%
    21:00 +5°C° 0 mm 2 m/S 750 mmHg 68%
    22:00 +4°C° 0 mm 2 m/S 750 mmHg 70%
    23:00 +4°C° 0 mm 2 m/S 750 mmHg 69%
    Mehr zeigen